Change the Weather History Date:

Monday, January 14, 2013

  Actual Average Record
Temperature  
Mean Temperature 52 °F -  
Max Temperature 66 °F 55 °F 66 °F (2013)
Min Temperature 39 °F 40 °F 35 °F (2006)
Degree Days  
Heating Degree Days 12    
Growing Degree Days 2 (Base 50)    
Moisture  
Dew Point 46 °F    
Average Humidity 77    
Maximum Humidity 94    
Minimum Humidity 52    
Precipitation  
Precipitation 0.00 in - - ()
Sea Level Pressure  
Sea Level Pressure 30.16 in    
Wind  
Wind Speed 5 mph ()    
Max Wind Speed 13 mph    
Max Gust Speed -    
Visibility 6.2 miles    
Events      
Averages and records for this station are not official NWS values.
T = Trace of Precipitation, MM = Missing Value Source: Averaged Metar Reports

Daily Weather History Graph

Daily Weather History Graph

Search for Another Location

Airport or City:

Trip Planner

Search our weather history database for the weather conditions in past years. The results will help you decide how hot, cold, wet, or windy it might be!

Date:

Astronomy

Jan. 14, 2013 Rise Set
Actual Time 7:49 AM EET 5:37 PM EET
Civil Twilight 7:20 AM EET 6:06 PM EET
Nautical Twilight 6:48 AM EET 6:38 PM EET
Astronomical Twilight 6:16 AM EET 7:10 PM EET
Moon 9:16 AM EET (1/14) 8:58 PM EET (1/14)
Length of Visible Light 10h 45m
Length of Day
9h 47m
Waxing Crescent, 9% of the Moon is Illuminated
Jan 14
Waxing Crescent
Jan 19
First Quarter
Jan 27
Full
Feb 3
Last Quarter
Feb 10
New

Hourly Weather History & Observations

Time (EET) Temp. Windchill Dew Point Humidity Pressure Visibility Wind Dir Wind Speed Gust Speed Precip Events Conditions
12:50 AM 41.0 °F - 37.4 °F 87% 30.15 in 6.2 mi Calm Calm - N/A   Mostly Cloudy
1:50 AM 41.0 °F 39.0 °F 37.4 °F 87% 30.15 in 6.2 mi Variable 3.5 mph - N/A   Mostly Cloudy
2:50 AM 41.0 °F - 37.4 °F 87% 30.15 in 6.2 mi Calm Calm - N/A   Mostly Cloudy
3:50 AM 41.0 °F 39.0 °F 37.4 °F 87% 30.15 in 6.2 mi Variable 3.5 mph - N/A   Scattered Clouds
4:50 AM 41.0 °F 35.8 °F 37.4 °F 87% 30.15 in 6.2 mi ENE 8.1 mph - N/A   Mostly Cloudy
5:20 AM 41.0 °F 35.2 °F 37.4 °F 87% 30.15 in 6.2 mi ENE 9.2 mph - N/A   Mostly Cloudy
5:50 AM 39.2 °F 33.6 °F 37.4 °F 93% 30.15 in 6.2 mi ENE 8.1 mph - N/A   Mostly Cloudy
6:20 AM 50.0 °F - 44.6 °F 82% 30.15 in 6.2 mi Variable 3.5 mph - N/A   Mostly Cloudy
6:50 AM 50.0 °F - 44.6 °F 82% 30.18 in 6.2 mi East 5.8 mph - N/A   Mostly Cloudy
7:20 AM 50.0 °F - 44.6 °F 82% 30.18 in 6.2 mi Variable 3.5 mph - N/A   Mostly Cloudy
7:50 AM 50.0 °F - 42.8 °F 76% 30.18 in 6.2 mi ENE 8.1 mph - N/A   Scattered Clouds
8:20 AM 46.4 °F 43.5 °F 42.8 °F 87% 30.18 in 6.2 mi East 5.8 mph - N/A   Partly Cloudy
8:50 AM 48.2 °F - 41.0 °F 76% 30.18 in 6.2 mi East 5.8 mph - N/A   Partly Cloudy
9:20 AM 48.2 °F - 41.0 °F 76% 30.18 in 6.2 mi East 5.8 mph - N/A   Partly Cloudy
9:50 AM 55.4 °F - 46.4 °F 72% 30.18 in 6.2 mi NE 9.2 mph - N/A   Partly Cloudy
10:20 AM 55.4 °F - 46.4 °F 72% 30.18 in 6.2 mi NE 9.2 mph - N/A   Partly Cloudy
10:50 AM 57.2 °F - 48.2 °F 72% 30.18 in 6.2 mi ENE 11.5 mph - N/A   Partly Cloudy
11:20 AM 57.2 °F - 48.2 °F 72% 30.18 in 6.2 mi ENE 11.5 mph - N/A   Partly Cloudy
12:20 PM 60.8 °F - 50.0 °F 68% 30.18 in 6.2 mi East 5.8 mph - N/A   Partly Cloudy
12:50 PM 64.4 °F - 48.2 °F 56% 30.18 in 6.2 mi South 12.7 mph - N/A   Partly Cloudy
1:20 PM 64.4 °F - 48.2 °F 56% 30.18 in 6.2 mi SSE 11.5 mph - N/A   Scattered Clouds
1:50 PM 66.2 °F - 48.2 °F 52% 30.15 in 6.2 mi South 11.5 mph - N/A   Scattered Clouds
2:20 PM 62.6 °F - 48.2 °F 59% 30.15 in 6.2 mi South 11.5 mph - N/A   Scattered Clouds
2:50 PM 64.4 °F - 50.0 °F 59% 30.15 in 6.2 mi SSE 11.5 mph - N/A   Scattered Clouds
3:20 PM 64.4 °F - 50.0 °F 59% 30.15 in 6.2 mi SSE 11.5 mph - N/A   Scattered Clouds
3:50 PM 64.4 °F - 50.0 °F 59% 30.15 in 6.2 mi SSE 9.2 mph - N/A   Scattered Clouds
4:20 PM 64.4 °F - 50.0 °F 59% 30.15 in 6.2 mi SSE 9.2 mph - N/A   Scattered Clouds
4:50 PM 60.8 °F - 53.6 °F 77% 30.15 in 6.2 mi SE 5.8 mph - N/A   Scattered Clouds
5:20 PM 60.8 °F - 53.6 °F 77% 30.15 in 6.2 mi SE 5.8 mph - N/A   Scattered Clouds
5:50 PM 59.0 °F - 50.0 °F 72% 30.15 in 6.2 mi Calm Calm - N/A   Scattered Clouds
6:50 PM 55.4 °F - 50.0 °F 82% 30.15 in 6.2 mi Calm Calm - N/A   Scattered Clouds
7:50 PM 53.6 °F - 50.0 °F 88% 30.18 in 6.2 mi Calm Calm - N/A   Partly Cloudy
8:50 PM 51.8 °F - 48.2 °F 88% 30.15 in 6.2 mi Calm Calm - N/A   Partly Cloudy
9:50 PM 50.0 °F - 48.2 °F 94% 30.18 in 6.2 mi Calm Calm - N/A   Partly Cloudy
10:50 PM 50.0 °F - 48.2 °F 94% 30.18 in 6.2 mi Calm Calm - N/A   Scattered Clouds
11:50 PM 50.0 °F - 48.2 °F 94% 30.18 in 6.2 mi Calm Calm - N/A   Scattered Clouds